SCP
0 -0 0 -0 -0 -0 0 -0 -0 0 0 0 0 0 -0 0 0 0 0 0 0 0 0 0 0 0 0 0 0 0 0 0 -0 -0 -0 0 0 -0 0 0 -0 -0 -0
-0 -0 0 0 0 0 0 -0 -0 -0 0 0 0 0 -0 0 0 0 0 0 0 0 0 0 0 0 0 0 0 0 0 0 0 0 -0 0 -0 0 -0 -0 -0 -0 -0
0 0 -0 -0 -0 0 -0 -0 -0 -0 0 0 0 0 0 0 0 0 0 0 0 0 0 0 0 0 0 0 0 0 0 -0 -0 0 0 0 0 0 -0 -0 -0 -0 -0
0 0 -0 0 -0 -0 -0 -0 0 0 0 0 0 0 0 0 0 0 0 0 0 0 0 0 0 0 0 0 0 0 0 0 0 0 0 -0 -0 0 0 -0 -0 -0 -0
-0 -0 -0 0 0 0 0 0 0 0 0 0 0 0 0 0 0 0 0 0 0 0 0 0 0 0 0 0 0 0 0 -0 0 -0 0 0 0 -0 0 -0 -0 -0 -0
-0 -0 0 0 -0 0 0 0 0 0 0 0 0 0 0 0 0 0 0 0 0 0 0 0 0 0 0 0 0 -0 -0 0 0 -0 -0 -0 0 -0 -0 0 -0 -0 -0
0 -0 0 0 -0 0 0 0 0 0 0 0 0 0 0 0 0 0 0 0 0 0 -0 0 0 0 0 0 -0 -0 -0 0 0 -0 -0 0 -0 -0 0 -0 -0 -0 -0
-0 -0 -0 -0 -0 -0 -0 0 0 0 0 0 0 0 0 0 0 0 0 0 0 -0 -0 0 0 0 -0 -0 -0 -0 0 0 0 0 -0 0 -0 0 -0 -0 -0 -0 0
-0 -0 0 -0 -0 -0 -0 0 0 0 0 -0 0 0 0 0 0 0 0 0 0 0 0 0 0 0 0 0 0 0 0 0 0 0 0 -0 -0 -0 -0 -0 -0 -0 0
0 0 0 0 0 0 0 0 0 0 0 0 0 0 0 0 0 0 0 0 0 0 0 0 0 0 0 0 0 0 0 0 -0 -0 -0 -0 -0 -0 -0 -0 -0 -0 0
0 0 0 0 0 0 0 -0 0 0 0 0 0 0 0 0 0 0 0 0 0 0 0 0 0 0 0 0 0 0 0 0 -0 -0 -0 -0 -0 -0 -0 0 0 0 0
0 0 0 0 0 0 0 0 0 0 0 0 0 0 0 0 0 0 0 0 0 0 0 0 0 0 0 0 0 0 0 -0 -0 0 0 -0 0 0 0 0 -0 -0 -0
0 0 0 0 0 0 0 0 0 0 0 0 0 0 0 0 1 0 0 0 0 0 0 0 0 0 0 0 0 0 0 -0 -0 -0 0 0 0 0 0 0 0 0 0
0 0 0 0 0 0 0 0 0 0 0 0 1 1 1 1 1 1 0 0 0 0 0 0 0 0 0 0 0 0 0 0 0 0 0 0 0 0 0 0 0 0 0
-0 0 0 0 0 0 0 0 0 0 0 0 1 1 1 1 1 0 0 0 0 0 0 0 0 0 0 0 0 0 0 0 0 0 0 1 1 0 0 0 0 0 0
-0 -0 0 0 0 0 0 0 0 0 0 0 0 0 1 0 0 0 0 0 0 0 0 0 0 0 0 0 0 0 0 0 0 0 0 1 1 1 0 0 0 0 0
0 -0 -0 0 0 0 0 0 0 0 0 0 0 0 0 0 0 0 0 0 0 0 0 0 0 0 0 0 0 0 1 0 0 1 1 0 1 1 1 0 0 0 0
0 0 -0 0 0 0 0 0 0 0 0 0 0 0 0 0 0 0 0 0 0 0 0 0 0 0 0 0 0 0 0 1 1 1 1 0 0 0 1 1 0 0 0
0 0 0 0 0 0 0 0 0 0 0 0 0 0 0 0 0 0 0 0 0 0 0 0 0 0 0 0 0 0 0 0 1 0 1 1 0 0 0 1 1 1 0
0 0 0 0 0 0 0 0 0 0 0 0 0 0 0 0 0 0 0 0 0 0 0 0 0 0 1 0 0 0 0 0 0 0 0 0 0 0 0 0 1 1 1
0 0 0 0 0 0 0 0 0 0 0 0 0 0 0 0 0 0 0 0 0 0 0 0 0 1 0 0 1 0 0 0 0 0 0 0 0 0 0 0 1 1 1
-0 0 0 0 0 0 0 0 0 0 0 0 0 0 0 0 0 0 0 0 0 0 0 0 1 0 0 0 0 0 0 0 0 0 0 0 0 0 0 0 1 1 1
-0 -0 0 0 0 0 0 0 0 0 0 0 0 0 0 0 0 0 0 0 0 0 0 0 0 0 0 0 0 0 0 0 0 0 0 0 0 0 0 0 0 0 1
-0 -0 -0 -0 0 0 0 0 0 0 -0 0 0 0 0 0 0 0 0 0 0 0 0 0 0 0 0 0 0 0 0 0 0 0 0 0 0 0 0 0 0 0 0
-0 -0 -0 0 -0 0 0 0 0 0 0 0 0 0 0 0 0 0 0 0 0 0 0 0 0 0 0 0 0 0 0 0 0 0 -0 -0 -0 0 0 0 0 0 0
0 0 0 0 0 -0 -0 0 0 0 0 0 0 0 0 0 0 0 0 0 0 0 0 0 0 0 0 0 0 0 0 0 0 0 -0 -0 -0 0 0 0 0 0 1
Wind_Speed_500mb
20 21 27 27 24 25 25 25 27 27 26 27 24 23 23 22 22 26 27 27 26 31 34 37 32 34 35 35 37 40 41 39 34 37 38 38 35 35 34 38 33 26 27
26 21 27 27 25 24 24 24 24 25 24 23 22 22 24 24 24 25 25 24 27 29 34 31 32 35 35 36 35 36 38 34 35 38 42 35 32 30 29 26 26 26 27
27 23 25 26 23 22 25 22 19 18 18 17 19 20 21 23 25 25 23 24 26 29 31 33 33 33 29 33 32 32 32 29 32 43 41 22 25 25 25 24 24 23 23
28 24 21 25 22 22 23 22 19 19 18 20 25 23 24 26 25 23 24 24 25 29 27 28 29 28 28 28 29 29 30 28 29 42 25 23 24 27 24 23 20 22 23
27 24 23 24 23 22 22 22 23 22 23 28 28 27 26 26 24 22 24 23 25 28 27 24 30 28 27 28 26 21 19 22 33 27 24 19 18 21 21 23 19 15 11
28 22 26 26 25 24 24 24 23 25 26 27 27 26 28 26 26 25 24 23 24 27 25 25 29 26 26 25 23 23 22 20 28 19 19 22 18 24 22 20 19 16 12
28 23 23 25 23 24 24 26 27 26 27 26 27 28 27 27 24 22 25 25 24 23 23 28 28 31 30 27 26 25 26 31 20 22 22 19 22 24 23 20 18 17 15
28 26 23 25 23 23 26 25 26 26 26 25 23 24 22 22 22 22 21 22 25 25 28 30 30 27 28 29 29 28 30 36 25 26 22 18 25 23 21 20 19 18 16
27 27 22 21 20 23 24 23 26 24 24 22 20 19 18 16 17 21 20 20 23 26 31 32 29 27 26 25 27 27 29 37 23 22 21 17 24 24 21 19 19 16 15
27 26 25 24 21 21 21 24 23 20 20 20 19 18 16 17 16 19 21 21 21 26 30 27 23 18 21 23 26 27 36 36 20 22 19 26 25 24 24 22 20 19 17
28 27 26 22 23 25 20 21 20 20 20 23 22 18 14 14 13 15 19 22 24 25 28 25 23 28 29 28 27 34 34 20 21 20 16 28 28 29 28 25 25 23 21
28 27 25 24 22 22 19 20 20 17 17 15 17 17 17 17 21 19 23 24 27 25 26 25 26 31 30 17 21 29 18 21 20 19 21 26 28 27 31 29 26 30 28
30 26 27 24 25 21 19 18 16 14 11 14 19 19 24 23 22 22 20 22 25 26 18 21 26 19 20 19 20 19 21 20 20 19 23 25 30 29 31 32 32 31 32
31 27 26 25 24 23 19 20 17 14 14 14 12 18 19 20 24 23 25 28 25 23 24 20 18 19 16 18 19 19 19 18 18 18 22 23 27 30 29 28 29 30 31
32 30 28 25 22 19 25 18 21 17 16 15 14 17 17 18 24 24 29 28 26 24 22 21 19 15 14 14 14 15 13 14 15 14 11 21 22 23 26 27 28 29 29
30 30 28 24 25 22 19 21 17 15 10 11 14 13 19 16 25 25 27 26 26 24 22 19 16 11 11 11 10 10 11 11 11 9 7 15 19 20 21 21 24 25 25
31 30 27 25 25 26 24 20 15 10 9 13 14 16 13 17 27 27 24 23 23 26 26 21 17 13 11 10 9 7 9 8 7 8 6 5 17 22 21 20 20 20 21
32 32 29 25 24 25 21 19 13 13 12 14 15 15 17 20 25 23 20 21 22 19 16 12 10 7 7 6 4 4 5 8 8 8 6 6 8 8 24 23 21 20 20
35 34 31 27 25 24 26 18 18 20 16 14 14 12 16 19 22 18 17 18 19 14 13 10 8 10 5 5 5 5 7 8 10 9 10 10 10 10 9 24 22 19 20
37 35 31 28 27 26 22 22 19 19 17 15 15 13 16 15 20 21 17 20 17 14 10 10 10 7 6 1 1 6 9 9 11 13 13 13 13 14 13 15 18 23 26
37 36 34 33 33 30 24 21 23 23 20 16 16 17 14 15 17 19 16 19 16 12 13 10 7 3 3 5 5 8 9 8 10 12 12 11 12 14 16 16 17 16 20
42 39 37 36 37 35 25 21 24 23 23 16 16 13 14 19 16 13 16 15 14 9 11 10 10 8 6 2 5 9 7 0 14 8 9 10 12 11 14 17 19 22 22
48 45 41 41 40 38 28 24 25 27 24 21 16 12 17 21 15 14 14 16 18 15 10 13 11 11 6 6 9 6 8 12 18 11 11 10 20 14 13 15 16 21 25
50 47 43 42 44 43 38 29 26 26 28 25 23 19 16 17 15 15 14 14 14 16 20 20 19 15 11 7 12 10 14 16 11 8 11 14 20 20 21 15 15 21 24
51 51 49 49 47 43 45 37 31 26 27 24 22 21 20 17 14 17 18 14 14 11 22 30 27 23 15 13 12 13 14 11 12 8 9 15 14 15 14 16 19 20 26
54 52 51 54 56 53 51 53 43 31 30 30 27 20 16 16 17 22 24 21 17 15 12 20 27 26 23 19 16 13 10 10 10 11 14 18 15 14 11 10 13 20 20
Wind_Direction_500mb
152 154 145 143 142 135 132 132 134 131 124 118 118 122 128 133 121 114 111 106 101 99 96 104 100 100 96 93 91 88 88 84 85 88 86 84 83 86 82 80 70 84 91
141 147 141 140 143 138 133 129 129 126 121 115 115 119 117 128 130 123 120 109 105 102 100 99 98 98 97 96 93 92 92 90 83 87 67 67 77 74 80 88 91 78 77
133 140 132 134 140 145 137 134 135 131 127 122 113 117 118 123 124 130 128 122 107 106 107 101 100 103 100 101 96 95 93 86 81 81 84 77 77 86 79 70 66 69 71
133 129 138 133 132 133 138 129 129 127 128 120 124 120 121 118 124 122 125 121 119 110 103 109 108 100 99 97 91 91 85 79 75 77 75 64 64 70 70 66 64 62 56
127 131 143 129 126 128 129 133 128 125 123 121 119 115 113 124 122 124 128 122 117 114 109 105 102 98 95 94 88 80 70 69 67 62 77 83 80 60 60 61 53 63 66
131 127 133 129 130 128 129 129 125 123 123 120 119 119 116 113 116 117 117 116 114 116 114 107 104 94 90 82 77 73 77 86 75 76 67 51 66 52 53 54 53 56 60
129 138 129 130 132 131 129 128 128 126 128 126 123 122 123 123 121 118 112 105 109 116 112 112 105 97 89 83 81 80 83 85 82 81 74 70 59 55 56 54 56 56 56
132 135 130 134 133 132 134 132 131 132 131 129 130 126 128 128 125 118 115 113 110 110 121 120 114 107 101 91 84 83 82 88 74 76 76 64 60 57 55 47 40 36 34
136 136 134 129 134 143 143 137 134 133 131 134 132 130 128 130 129 125 123 118 121 119 124 124 121 111 109 96 84 80 80 88 78 79 68 54 54 46 41 36 29 27 30
137 138 145 137 141 129 133 144 143 135 134 125 118 121 132 138 142 139 141 141 130 126 131 123 115 112 110 92 85 83 73 67 81 68 66 57 47 38 34 34 35 31 29
147 146 142 145 137 137 140 142 136 135 131 121 128 121 112 123 127 121 158 157 147 140 138 131 112 105 95 84 78 74 69 81 68 71 66 49 43 42 40 41 38 38 34
152 151 147 147 146 136 135 129 159 142 132 138 134 119 101 130 144 153 153 155 152 143 136 128 117 108 86 74 50 58 77 69 70 64 60 50 49 52 46 44 51 44 41
157 156 155 151 143 138 151 138 129 125 122 125 128 120 115 108 107 126 136 142 146 135 124 125 111 105 108 89 79 79 72 72 70 66 53 49 49 49 44 43 42 40 41
160 159 156 157 153 154 147 128 138 128 141 120 139 117 100 87 106 121 138 143 137 134 150 133 126 125 99 87 86 78 69 71 69 66 36 44 44 44 44 40 40 37 36
162 163 165 163 162 162 143 155 142 135 122 142 128 123 118 115 114 116 128 134 140 142 143 135 136 120 98 89 81 73 65 64 56 61 35 37 37 37 36 33 33 31 28
168 168 172 170 171 165 158 150 141 135 142 135 137 140 129 116 112 115 118 133 139 141 145 142 136 114 107 89 62 61 68 46 33 42 37 348 18 24 22 20 23 22 19
172 169 174 168 167 168 162 155 147 129 143 141 146 152 140 127 126 122 128 129 137 147 143 142 120 111 94 69 64 49 44 19 20 358 15 1 334 358 4 5 3 3 6
173 171 168 167 173 167 174 162 160 153 135 138 139 142 149 151 147 131 131 140 144 138 141 139 135 124 104 95 63 43 25 7 343 356 358 353 334 337 331 350 346 346 345
173 174 170 170 172 174 172 165 158 163 134 142 143 144 145 155 161 150 156 165 149 158 159 152 148 129 114 83 48 7 335 336 328 329 315 324 321 330 319 311 344 344 343
175 175 176 172 176 173 177 167 167 167 153 147 145 148 143 151 153 147 161 157 147 155 162 158 159 166 154 205 344 298 309 319 324 322 313 320 315 307 314 304 311 328 331
180 179 180 178 182 176 175 178 170 172 166 158 158 161 155 158 161 154 161 156 151 158 171 172 173 206 195 298 353 331 329 331 342 352 336 322 313 314 296 303 315 312 314
187 188 185 183 184 178 182 183 171 178 167 169 161 165 180 173 170 172 180 186 178 195 177 173 170 188 202 297 341 329 358 40 11 360 10 4 339 324 315 309 298 314 316
193 194 196 191 191 187 182 185 180 174 175 164 167 156 160 165 174 183 189 190 211 198 226 220 210 200 212 289 327 340 329 15 349 352 3 13 10 4 343 326 318 325 325
195 197 198 197 195 197 194 187 191 175 178 179 173 175 173 180 189 193 195 207 216 224 223 229 230 223 237 276 311 302 303 306 334 338 353 2 7 11 1 359 347 350 349
197 200 199 203 202 198 201 189 196 191 188 182 180 187 186 210 200 199 204 216 232 223 234 220 228 233 248 258 281 288 296 301 312 313 327 347 6 355 352 7 5 4 357
199 199 202 204 211 209 206 198 195 198 192 186 183 185 192 203 216 212 215 226 229 217 225 223 231 239 246 261 273 277 272 283 295 306 315 332 338 345 339 338 353 350 346
Wind_Speed_850mb
20 21 27 27 24 25 25 25 27 27 26 27 24 23 23 22 22 26 27 27 26 31 34 37 32 34 35 35 37 40 41 39 34 37 38 38 35 35 34 38 33 26 27
26 21 27 27 25 24 24 24 24 25 24 23 22 22 24 24 24 25 25 24 27 29 34 31 32 35 35 36 35 36 38 34 35 38 42 35 32 30 29 26 26 26 27
27 23 25 26 23 22 25 22 19 18 18 17 19 20 21 23 25 25 23 24 26 29 31 33 33 33 29 33 32 32 32 29 32 43 41 22 25 25 25 24 24 23 23
28 24 21 25 22 22 23 22 19 19 18 20 25 23 24 26 25 23 24 24 25 29 27 28 29 28 28 28 29 29 30 28 29 42 25 23 24 27 24 23 20 22 23
27 24 23 24 23 22 22 22 23 22 23 28 28 27 26 26 24 22 24 23 25 28 27 24 30 28 27 28 26 21 19 22 33 27 24 19 18 21 21 23 19 15 11
28 22 26 26 25 24 24 24 23 25 26 27 27 26 28 26 26 25 24 23 24 27 25 25 29 26 26 25 23 23 22 20 28 19 19 22 18 24 22 20 19 16 12
28 23 23 25 23 24 24 26 27 26 27 26 27 28 27 27 24 22 25 25 24 23 23 28 28 31 30 27 26 25 26 31 20 22 22 19 22 24 23 20 18 17 15
28 26 23 25 23 23 26 25 26 26 26 25 23 24 22 22 22 22 21 22 25 25 28 30 30 27 28 29 29 28 30 36 25 26 22 18 25 23 21 20 19 18 16
27 27 22 21 20 23 24 23 26 24 24 22 20 19 18 16 17 21 20 20 23 26 31 32 29 27 26 25 27 27 29 37 23 22 21 17 24 24 21 19 19 16 15
27 26 25 24 21 21 21 24 23 20 20 20 19 18 16 17 16 19 21 21 21 26 30 27 23 18 21 23 26 27 36 36 20 22 19 26 25 24 24 22 20 19 17
28 27 26 22 23 25 20 21 20 20 20 23 22 18 14 14 13 15 19 22 24 25 28 25 23 28 29 28 27 34 34 20 21 20 16 28 28 29 28 25 25 23 21
28 27 25 24 22 22 19 20 20 17 17 15 17 17 17 17 21 19 23 24 27 25 26 25 26 31 30 17 21 29 18 21 20 19 21 26 28 27 31 29 26 30 28
30 26 27 24 25 21 19 18 16 14 11 14 19 19 24 23 22 22 20 22 25 26 18 21 26 19 20 19 20 19 21 20 20 19 23 25 30 29 31 32 32 31 32
31 27 26 25 24 23 19 20 17 14 14 14 12 18 19 20 24 23 25 28 25 23 24 20 18 19 16 18 19 19 19 18 18 18 22 23 27 30 29 28 29 30 31
32 30 28 25 22 19 25 18 21 17 16 15 14 17 17 18 24 24 29 28 26 24 22 21 19 15 14 14 14 15 13 14 15 14 11 21 22 23 26 27 28 29 29
30 30 28 24 25 22 19 21 17 15 10 11 14 13 19 16 25 25 27 26 26 24 22 19 16 11 11 11 10 10 11 11 11 9 7 15 19 20 21 21 24 25 25
31 30 27 25 25 26 24 20 15 10 9 13 14 16 13 17 27 27 24 23 23 26 26 21 17 13 11 10 9 7 9 8 7 8 6 5 17 22 21 20 20 20 21
32 32 29 25 24 25 21 19 13 13 12 14 15 15 17 20 25 23 20 21 22 19 16 12 10 7 7 6 4 4 5 8 8 8 6 6 8 8 24 23 21 20 20
35 34 31 27 25 24 26 18 18 20 16 14 14 12 16 19 22 18 17 18 19 14 13 10 8 10 5 5 5 5 7 8 10 9 10 10 10 10 9 24 22 19 20
37 35 31 28 27 26 22 22 19 19 17 15 15 13 16 15 20 21 17 20 17 14 10 10 10 7 6 1 1 6 9 9 11 13 13 13 13 14 13 15 18 23 26
37 36 34 33 33 30 24 21 23 23 20 16 16 17 14 15 17 19 16 19 16 12 13 10 7 3 3 5 5 8 9 8 10 12 12 11 12 14 16 16 17 16 20
42 39 37 36 37 35 25 21 24 23 23 16 16 13 14 19 16 13 16 15 14 9 11 10 10 8 6 2 5 9 7 0 14 8 9 10 12 11 14 17 19 22 22
48 45 41 41 40 38 28 24 25 27 24 21 16 12 17 21 15 14 14 16 18 15 10 13 11 11 6 6 9 6 8 12 18 11 11 10 20 14 13 15 16 21 25
50 47 43 42 44 43 38 29 26 26 28 25 23 19 16 17 15 15 14 14 14 16 20 20 19 15 11 7 12 10 14 16 11 8 11 14 20 20 21 15 15 21 24
51 51 49 49 47 43 45 37 31 26 27 24 22 21 20 17 14 17 18 14 14 11 22 30 27 23 15 13 12 13 14 11 12 8 9 15 14 15 14 16 19 20 26
54 52 51 54 56 53 51 53 43 31 30 30 27 20 16 16 17 22 24 21 17 15 12 20 27 26 23 19 16 13 10 10 10 11 14 18 15 14 11 10 13 20 20
Wind_Direction_850mb
152 154 145 143 142 135 132 132 134 131 124 118 118 122 128 133 121 114 111 106 101 99 96 104 100 100 96 93 91 88 88 84 85 88 86 84 83 86 82 80 70 84 91
141 147 141 140 143 138 133 129 129 126 121 115 115 119 117 128 130 123 120 109 105 102 100 99 98 98 97 96 93 92 92 90 83 87 67 67 77 74 80 88 91 78 77
133 140 132 134 140 145 137 134 135 131 127 122 113 117 118 123 124 130 128 122 107 106 107 101 100 103 100 101 96 95 93 86 81 81 84 77 77 86 79 70 66 69 71
133 129 138 133 132 133 138 129 129 127 128 120 124 120 121 118 124 122 125 121 119 110 103 109 108 100 99 97 91 91 85 79 75 77 75 64 64 70 70 66 64 62 56
127 131 143 129 126 128 129 133 128 125 123 121 119 115 113 124 122 124 128 122 117 114 109 105 102 98 95 94 88 80 70 69 67 62 77 83 80 60 60 61 53 63 66
131 127 133 129 130 128 129 129 125 123 123 120 119 119 116 113 116 117 117 116 114 116 114 107 104 94 90 82 77 73 77 86 75 76 67 51 66 52 53 54 53 56 60
129 138 129 130 132 131 129 128 128 126 128 126 123 122 123 123 121 118 112 105 109 116 112 112 105 97 89 83 81 80 83 85 82 81 74 70 59 55 56 54 56 56 56
132 135 130 134 133 132 134 132 131 132 131 129 130 126 128 128 125 118 115 113 110 110 121 120 114 107 101 91 84 83 82 88 74 76 76 64 60 57 55 47 40 36 34
136 136 134 129 134 143 143 137 134 133 131 134 132 130 128 130 129 125 123 118 121 119 124 124 121 111 109 96 84 80 80 88 78 79 68 54 54 46 41 36 29 27 30
137 138 145 137 141 129 133 144 143 135 134 125 118 121 132 138 142 139 141 141 130 126 131 123 115 112 110 92 85 83 73 67 81 68 66 57 47 38 34 34 35 31 29
147 146 142 145 137 137 140 142 136 135 131 121 128 121 112 123 127 121 158 157 147 140 138 131 112 105 95 84 78 74 69 81 68 71 66 49 43 42 40 41 38 38 34
152 151 147 147 146 136 135 129 159 142 132 138 134 119 101 130 144 153 153 155 152 143 136 128 117 108 86 74 50 58 77 69 70 64 60 50 49 52 46 44 51 44 41
157 156 155 151 143 138 151 138 129 125 122 125 128 120 115 108 107 126 136 142 146 135 124 125 111 105 108 89 79 79 72 72 70 66 53 49 49 49 44 43 42 40 41
160 159 156 157 153 154 147 128 138 128 141 120 139 117 100 87 106 121 138 143 137 134 150 133 126 125 99 87 86 78 69 71 69 66 36 44 44 44 44 40 40 37 36
162 163 165 163 162 162 143 155 142 135 122 142 128 123 118 115 114 116 128 134 140 142 143 135 136 120 98 89 81 73 65 64 56 61 35 37 37 37 36 33 33 31 28
168 168 172 170 171 165 158 150 141 135 142 135 137 140 129 116 112 115 118 133 139 141 145 142 136 114 107 89 62 61 68 46 33 42 37 348 18 24 22 20 23 22 19
172 169 174 168 167 168 162 155 147 129 143 141 146 152 140 127 126 122 128 129 137 147 143 142 120 111 94 69 64 49 44 19 20 358 15 1 334 358 4 5 3 3 6
173 171 168 167 173 167 174 162 160 153 135 138 139 142 149 151 147 131 131 140 144 138 141 139 135 124 104 95 63 43 25 7 343 356 358 353 334 337 331 350 346 346 345
173 174 170 170 172 174 172 165 158 163 134 142 143 144 145 155 161 150 156 165 149 158 159 152 148 129 114 83 48 7 335 336 328 329 315 324 321 330 319 311 344 344 343
175 175 176 172 176 173 177 167 167 167 153 147 145 148 143 151 153 147 161 157 147 155 162 158 159 166 154 205 344 298 309 319 324 322 313 320 315 307 314 304 311 328 331
180 179 180 178 182 176 175 178 170 172 166 158 158 161 155 158 161 154 161 156 151 158 171 172 173 206 195 298 353 331 329 331 342 352 336 322 313 314 296 303 315 312 314
187 188 185 183 184 178 182 183 171 178 167 169 161 165 180 173 170 172 180 186 178 195 177 173 170 188 202 297 341 329 358 40 11 360 10 4 339 324 315 309 298 314 316
193 194 196 191 191 187 182 185 180 174 175 164 167 156 160 165 174 183 189 190 211 198 226 220 210 200 212 289 327 340 329 15 349 352 3 13 10 4 343 326 318 325 325
195 197 198 197 195 197 194 187 191 175 178 179 173 175 173 180 189 193 195 207 216 224 223 229 230 223 237 276 311 302 303 306 334 338 353 2 7 11 1 359 347 350 349
197 200 199 203 202 198 201 189 196 191 188 182 180 187 186 210 200 199 204 216 232 223 234 220 228 233 248 258 281 288 296 301 312 313 327 347 6 355 352 7 5 4 357
199 199 202 204 211 209 206 198 195 198 192 186 183 185 192 203 216 212 215 226 229 217 225 223 231 239 246 261 273 277 272 283 295 306 315 332 338 345 339 338 353 350 346